Buffalo, MN

7:33 AM CDT on September 28, 2016 (GMT -0500)
Buffalo

Weather History for KCFE - October, 2012

Change the Weather History Date:

Sunday, October 14, 2012

  Actual Average (KSTC) Record (KSTC)
Temperature  
Mean Temperature 50 °F 47 °F  
Max Temperature 58 °F 58 °F 85 °F (1947)
Min Temperature 41 °F 36 °F 19 °F (1937)
Degree Days  
Heating Degree Days 16 18  
Month to date heating degree days 223  
Since 1 July heating degree days 509  
Cooling Degree Days 0 0  
Month to date cooling degree days 0  
Year to date cooling degree days 463  
Moisture  
Dew Point 40 °F    
Average Humidity 74    
Maximum Humidity 98    
Minimum Humidity 45    
Precipitation  
Precipitation 0.00 in 0.09 in 0.99 in (1911)
Month to date precipitation 1.30  
Year to date precipitation 24.34  
Snow  
Snow 0.00 in 0.00 in 0.50 in (1959)
Month to date snowfall 0.1  
Since 1 July snowfall 0.1  
Since 1 September snowfall 0.1  
Snow Depth -    
Sea Level Pressure  
Sea Level Pressure 29.81 in    
Wind  
Wind Speed 7 mph (NNW)    
Max Wind Speed 16 mph    
Max Gust Speed 22 mph    
Visibility 9 miles    
Events      
T = Trace of Precipitation, MM = Missing Value Source: NWS Daily Summary

Daily Weather History Graph

Daily Weather History Graph

Search for Another Location

Airport or City:

Trip Planner

Search our weather history database for the weather conditions in past years. The results will help you decide how hot, cold, wet, or windy it might be!

Date:

Astronomy

Oct. 14, 2012 Rise Set
Actual Time 7:30 AM CDT 6:31 PM CDT
Civil Twilight 7:00 AM CDT 7:00 PM CDT
Nautical Twilight 6:26 AM CDT 7:34 PM CDT
Astronomical Twilight 5:52 AM CDT 8:08 PM CDT
Moon 6:29 AM CDT (10/14) 5:50 PM CDT (10/14)
Length of Visible Light 11h 59m
Length of Day
11h 00m
Waning Crescent, 1% of the Moon is Illuminated
Oct 14
Waning Crescent
Oct 15
New
Oct 21
First Quarter
Oct 29
Full
Nov 6
Last Quarter

Hourly Weather History & Observations

Time (CDT) Temp. Windchill Dew Point Humidity Pressure Visibility Wind Dir Wind Speed Gust Speed Precip Events Conditions
12:13 AM 47.8 °F - 46.8 °F 96% 29.74 in 7.0 mi NE 5.8 mph - N/A   Overcast
12:33 AM 47.7 °F - 46.0 °F 94% 29.76 in 7.0 mi NE 4.6 mph - N/A   Overcast
12:54 AM 47.8 °F - 45.7 °F 92% 29.76 in 7.0 mi ENE 6.9 mph - N/A   Overcast
1:13 AM 47.8 °F - 45.7 °F 92% 29.76 in 7.0 mi NE 5.8 mph - N/A   Overcast
1:33 AM 47.7 °F - 45.5 °F 92% 29.76 in 7.0 mi NNE 5.8 mph - N/A   Overcast
1:53 AM 47.7 °F - 45.5 °F 92% 29.76 in 10.0 mi NE 8.1 mph - N/A   Overcast
2:13 AM 47.7 °F - 45.1 °F 91% 29.76 in 10.0 mi North 4.6 mph - N/A   Overcast
2:33 AM 47.3 °F - 44.8 °F 91% 29.77 in 10.0 mi North 3.5 mph - N/A   Overcast
2:53 AM 46.6 °F - 44.4 °F 92% 29.78 in 10.0 mi North 3.5 mph - N/A   Overcast
3:13 AM 46.2 °F - 44.6 °F 94% 29.78 in 7.0 mi Calm Calm - N/A   Scattered Clouds
3:33 AM 45.1 °F 42.8 °F 43.7 °F 95% 29.77 in 7.0 mi NNW 4.6 mph - N/A   Clear
3:53 AM 44.6 °F 43.1 °F 43.2 °F 95% 29.77 in 7.0 mi North 3.5 mph - N/A   Clear
4:13 AM 43.9 °F 41.3 °F 42.6 °F 95% 29.77 in 7.0 mi NNW 4.6 mph - N/A   Scattered Clouds
4:33 AM 43.2 °F 40.5 °F 42.1 °F 96% 29.77 in 5.0 mi North 4.6 mph - N/A   Mostly Cloudy
4:53 AM 42.6 °F 39.9 °F 41.7 °F 97% 29.77 in 3.0 mi North 4.6 mph - N/A   Overcast
5:13 AM 42.4 °F 40.7 °F 41.9 °F 98% 29.77 in 4.0 mi NNW 3.5 mph - N/A   Overcast
5:33 AM 41.9 °F 39.0 °F 41.0 °F 97% 29.77 in 4.0 mi NNW 4.6 mph - N/A   Overcast
5:53 AM 41.9 °F 39.0 °F 41.2 °F 97% 29.77 in 5.0 mi NNW 4.6 mph - N/A   Overcast
6:13 AM 41.9 °F 38.2 °F 41.0 °F 97% 29.76 in 7.0 mi North 5.8 mph - N/A   Overcast
6:33 AM 41.9 °F 40.0 °F 41.0 °F 97% 29.77 in 7.0 mi North 3.5 mph - N/A   Overcast
6:53 AM 42.3 °F 37.9 °F 41.4 °F 97% 29.78 in 7.0 mi NW 6.9 mph - N/A   Overcast
7:13 AM 42.8 °F 38.6 °F 41.7 °F 96% 29.78 in 7.0 mi NNW 6.9 mph - N/A   Overcast
7:33 AM 42.8 °F 38.0 °F 41.5 °F 95% 29.78 in 10.0 mi North 8.1 mph - N/A   Overcast
7:53 AM 42.8 °F 37.5 °F 41.5 °F 95% 29.79 in 10.0 mi NNW 9.2 mph - N/A   Overcast
8:13 AM 42.4 °F 36.5 °F 41.0 °F 95% 29.79 in 10.0 mi NNW 10.4 mph - N/A   Overcast
8:33 AM 42.3 °F 37.3 °F 40.3 °F 93% 29.79 in 10.0 mi North 8.1 mph - N/A   Overcast
8:53 AM 42.8 °F 37.0 °F 40.5 °F 91% 29.80 in 10.0 mi NNW 10.4 mph - N/A   Overcast
9:13 AM 42.8 °F 37.0 °F 40.5 °F 91% 29.80 in 10.0 mi North 10.4 mph - N/A   Overcast
9:33 AM 42.8 °F 37.0 °F 40.5 °F 91% 29.80 in 10.0 mi NNW 10.4 mph - N/A   Overcast
9:53 AM 42.8 °F 38.0 °F 41.0 °F 93% 29.80 in 10.0 mi North 8.1 mph - N/A   Overcast
10:13 AM 43.3 °F 38.6 °F 41.2 °F 92% 29.81 in 7.0 mi North 8.1 mph - N/A   Overcast
10:33 AM 44.4 °F 40.0 °F 41.9 °F 91% 29.81 in 10.0 mi NNW 8.1 mph - N/A   Overcast
10:53 AM 45.3 °F 41.1 °F 42.3 °F 89% 29.81 in 10.0 mi NW 8.1 mph - N/A   Overcast
11:13 AM 46.4 °F 42.4 °F 43.0 °F 88% 29.82 in 7.0 mi NW 8.1 mph - N/A   Overcast
11:33 AM 47.3 °F - 43.0 °F 85% 29.81 in 10.0 mi NW 9.2 mph 16.1 mph N/A   Overcast
11:54 AM 49.6 °F - 42.1 °F 75% 29.81 in 10.0 mi NNW 10.4 mph 16.1 mph N/A   Mostly Cloudy
12:13 PM 51.6 °F - 40.3 °F 65% 29.81 in 10.0 mi NNW 12.7 mph - N/A   Scattered Clouds
12:33 PM 53.2 °F - 39.0 °F 59% 29.81 in 10.0 mi NNW 15.0 mph 19.6 mph N/A   Clear
12:54 PM 53.6 °F - 38.1 °F 56% 29.80 in 10.0 mi NNW 12.7 mph - N/A   Clear
1:13 PM 54.9 °F - 37.8 °F 53% 29.80 in 10.0 mi NNW 16.1 mph 20.7 mph N/A   Clear
1:33 PM 55.4 °F - 37.8 °F 52% 29.80 in 10.0 mi NNW 12.7 mph - N/A   Clear
1:54 PM 56.5 °F - 37.2 °F 49% 29.80 in 10.0 mi NW 13.8 mph 19.6 mph N/A   Clear
2:13 PM 57.0 °F - 36.7 °F 47% 29.80 in 10.0 mi NW 16.1 mph 21.9 mph N/A   Clear
2:33 PM 57.2 °F - 36.5 °F 46% 29.80 in 10.0 mi NW 15.0 mph 21.9 mph N/A   Clear
2:54 PM 57.9 °F - 37.0 °F 46% 29.79 in 10.0 mi NNW 11.5 mph 18.4 mph N/A   Clear
3:13 PM 57.7 °F - 36.9 °F 46% 29.80 in 10.0 mi NNW 12.7 mph 18.4 mph N/A   Clear
3:33 PM 57.7 °F - 36.5 °F 45% 29.80 in 10.0 mi NW 12.7 mph 20.7 mph N/A   Clear
3:54 PM 58.1 °F - 37.6 °F 46% 29.81 in 10.0 mi NNW 10.4 mph 19.6 mph N/A   Clear
4:13 PM 57.9 °F - 37.6 °F 47% 29.81 in 10.0 mi NW 12.7 mph 17.3 mph N/A   Clear
4:33 PM 57.6 °F - 37.9 °F 48% 29.81 in 10.0 mi NNW 11.5 mph - N/A   Scattered Clouds
4:54 PM 57.0 °F - 38.1 °F 49% 29.82 in 10.0 mi NW 12.7 mph 18.4 mph N/A   Mostly Cloudy
5:13 PM 56.3 °F - 37.8 °F 50% 29.83 in 10.0 mi WNW 12.7 mph 17.3 mph N/A   Mostly Cloudy
5:33 PM 55.9 °F - 37.2 °F 49% 29.83 in 10.0 mi NW 10.4 mph - N/A   Mostly Cloudy
5:53 PM 54.9 °F - 37.4 °F 52% 29.83 in 10.0 mi NW 5.8 mph - N/A   Scattered Clouds
6:13 PM 54.9 °F - 37.6 °F 52% 29.84 in 10.0 mi NW 5.8 mph - N/A   Mostly Cloudy
6:34 PM 54.5 °F - 37.8 °F 53% 29.84 in 10.0 mi NW 5.8 mph - N/A   Mostly Cloudy
6:53 PM 54.0 °F - 37.9 °F 55% 29.85 in 10.0 mi NW 3.5 mph - N/A   Overcast
7:13 PM 53.2 °F - 37.8 °F 56% 29.85 in 10.0 mi Calm Calm - N/A   Overcast
7:33 PM 52.7 °F - 37.6 °F 56% 29.85 in 10.0 mi NW 3.5 mph - N/A   Overcast
7:53 PM 52.2 °F - 37.6 °F 58% 29.86 in 10.0 mi WNW 3.5 mph - N/A   Overcast
8:13 PM 52.9 °F - 37.9 °F 57% 29.86 in 10.0 mi NW 3.5 mph - N/A   Overcast
8:33 PM 53.1 °F - 37.9 °F 57% 29.87 in 10.0 mi NW 3.5 mph - N/A   Overcast
8:53 PM 52.5 °F - 37.8 °F 57% 29.87 in 10.0 mi WNW 3.5 mph - N/A   Overcast
9:13 PM 52.3 °F - 37.8 °F 58% 29.87 in 10.0 mi West 3.5 mph - N/A   Overcast
9:33 PM 51.4 °F - 38.5 °F 61% 29.87 in 10.0 mi West 4.6 mph - N/A   Mostly Cloudy
9:53 PM 50.4 °F - 37.0 °F 60% 29.88 in 10.0 mi WNW 9.2 mph - N/A   Scattered Clouds
10:13 PM 50.2 °F - 34.7 °F 55% 29.89 in 10.0 mi NW 8.1 mph - N/A   Clear
10:33 PM 48.7 °F - 34.3 °F 58% 29.89 in 10.0 mi WNW 5.8 mph - N/A   Clear
10:53 PM 48.7 °F - 34.7 °F 58% 29.89 in 10.0 mi WNW 5.8 mph - N/A   Clear
11:13 PM 47.8 °F - 34.7 °F 60% 29.89 in 10.0 mi WNW 6.9 mph - N/A   Clear
11:33 PM 47.1 °F - 34.5 °F 62% 29.90 in 10.0 mi NW 5.8 mph - N/A   Clear